Time,TemperatureF,DewpointF,PressureIn,WindDirection,WindDirectionDegrees,WindSpeedMPH,WindSpeedGustMPH,Humidity,HourlyPrecipIn,Conditions,Clouds,dailyrainin,SoftwareType,DateUTC
2013-02-18 00:10:00,30.9,24.0,29.62,SE,142,6.0,13.0,74,0.00,,,0.00,weatherlink.com 1.10,2013-02-18 06:10:00,
2013-02-18 00:26:00,30.7,24.0,29.62,SE,130,3.0,11.0,75,0.00,,,0.00,weatherlink.com 1.10,2013-02-18 06:26:00,
2013-02-18 00:40:00,30.5,23.0,29.61,SE,137,4.0,8.0,75,0.00,,,0.00,weatherlink.com 1.10,2013-02-18 06:40:00,
2013-02-18 00:55:00,30.2,24.0,29.61,SSE,164,2.0,8.0,76,0.00,,,0.00,weatherlink.com 1.10,2013-02-18 06:55:00,
2013-02-18 01:10:00,30.1,23.0,29.60,South,184,6.0,9.0,76,0.00,,,0.00,weatherlink.com 1.10,2013-02-18 07:10:00,
2013-02-18 01:26:00,29.9,24.0,29.60,SE,138,3.0,7.0,77,0.00,,,0.00,weatherlink.com 1.10,2013-02-18 07:26:00,
2013-02-18 01:41:00,30.0,24.0,29.59,ESE,113,2.0,11.0,77,0.00,,,0.00,weatherlink.com 1.10,2013-02-18 07:41:00,
2013-02-18 01:56:00,30.1,24.0,29.60,SSE,168,2.0,8.0,77,0.00,,,0.00,weatherlink.com 1.10,2013-02-18 07:56:00,
2013-02-18 02:11:00,29.9,24.0,29.60,South,183,3.0,6.0,78,0.00,,,0.00,weatherlink.com 1.10,2013-02-18 08:11:00,
2013-02-18 02:26:00,29.7,24.0,29.59,South,183,0.0,4.0,78,0.00,,,0.00,weatherlink.com 1.10,2013-02-18 08:26:00,
2013-02-18 02:41:00,29.4,24.0,29.59,South,182,0.0,4.0,79,0.00,,,0.00,weatherlink.com 1.10,2013-02-18 08:41:00,
2013-02-18 02:56:00,29.1,23.0,29.59,South,182,2.0,2.0,79,0.00,,,0.00,weatherlink.com 1.10,2013-02-18 08:56:00,
2013-02-18 03:11:00,28.8,23.0,29.59,South,182,0.0,2.0,80,0.00,,,0.00,weatherlink.com 1.10,2013-02-18 09:11:00,
2013-02-18 03:26:00,28.4,23.0,29.58,South,182,0.0,2.0,81,0.00,,,0.00,weatherlink.com 1.10,2013-02-18 09:26:00,
2013-02-18 03:41:00,28.0,23.0,29.57,South,182,0.0,2.0,81,0.00,,,0.00,weatherlink.com 1.10,2013-02-18 09:41:00,
2013-02-18 03:56:00,27.6,23.0,29.56,South,182,0.0,2.0,82,0.00,,,0.00,weatherlink.com 1.10,2013-02-18 09:56:00,
2013-02-18 04:11:00,27.4,23.0,29.55,South,182,0.0,2.0,82,0.00,,,0.00,weatherlink.com 1.10,2013-02-18 10:11:00,
2013-02-18 04:26:00,27.1,23.0,29.55,South,182,0.0,3.0,83,0.00,,,0.00,weatherlink.com 1.10,2013-02-18 10:26:00,
2013-02-18 04:41:00,27.1,23.0,29.54,South,182,1.0,2.0,83,0.00,,,0.00,weatherlink.com 1.10,2013-02-18 10:41:00,
2013-02-18 04:56:00,27.1,23.0,29.54,South,183,0.0,3.0,83,0.00,,,0.00,weatherlink.com 1.10,2013-02-18 10:56:00,
2013-02-18 05:11:00,26.8,22.0,29.54,South,183,0.0,0.0,83,0.00,,,0.00,weatherlink.com 1.10,2013-02-18 11:11:00,
2013-02-18 05:26:00,26.4,22.0,29.55,South,183,0.0,1.0,84,0.00,,,0.00,weatherlink.com 1.10,2013-02-18 11:26:00,
2013-02-18 05:41:00,26.1,22.0,29.55,South,183,0.0,1.0,84,0.00,,,0.00,weatherlink.com 1.10,2013-02-18 11:41:00,
2013-02-18 05:56:00,25.8,22.0,29.55,South,183,0.0,0.0,85,0.00,,,0.00,weatherlink.com 1.10,2013-02-18 11:56:00,
2013-02-18 06:11:00,25.8,22.0,29.55,South,183,0.0,0.0,85,0.00,,,0.00,weatherlink.com 1.10,2013-02-18 12:11:00,
2013-02-18 06:26:00,25.8,22.0,29.55,South,183,0.0,2.0,85,0.00,,,0.00,weatherlink.com 1.10,2013-02-18 12:26:00,
2013-02-18 06:41:00,25.7,22.0,29.56,South,183,0.0,1.0,85,0.00,,,0.00,weatherlink.com 1.10,2013-02-18 12:41:00,
2013-02-18 06:56:00,26.0,22.0,29.55,South,184,2.0,3.0,86,0.00,,,0.00,weatherlink.com 1.10,2013-02-18 12:56:00,
2013-02-18 07:11:00,26.7,23.0,29.55,South,184,1.0,3.0,86,0.00,,,0.00,weatherlink.com 1.10,2013-02-18 13:11:00,
2013-02-18 07:26:00,27.1,23.0,29.55,WSW,252,1.0,5.0,85,0.00,,,0.00,weatherlink.com 1.10,2013-02-18 13:26:00,
2013-02-18 07:41:00,27.7,24.0,29.55,West,272,0.0,7.0,85,0.00,,,0.00,weatherlink.com 1.10,2013-02-18 13:41:00,
2013-02-18 07:56:00,28.5,25.0,29.54,West,273,0.0,4.0,85,0.00,,,0.00,weatherlink.com 1.10,2013-02-18 13:56:00,
2013-02-18 08:12:00,29.4,26.0,29.55,West,272,0.0,4.0,85,0.00,,,0.00,weatherlink.com 1.10,2013-02-18 14:12:00,
2013-02-18 08:26:00,30.3,26.0,29.55,West,272,3.0,4.0,85,0.00,,,0.00,weatherlink.com 1.10,2013-02-18 14:26:00,
2013-02-18 08:41:00,31.7,27.0,29.57,West,272,0.0,4.0,84,0.00,,,0.00,weatherlink.com 1.10,2013-02-18 14:41:00,
2013-02-18 08:57:00,32.7,28.0,29.57,NW,306,0.0,6.0,83,0.00,,,0.00,weatherlink.com 1.10,2013-02-18 14:57:00,
2013-02-18 09:12:00,33.5,29.0,29.59,West,271,0.0,6.0,82,0.00,,,0.00,weatherlink.com 1.10,2013-02-18 15:12:00,
2013-02-18 09:26:00,34.2,29.0,29.57,WNW,288,0.0,8.0,81,0.00,,,0.00,weatherlink.com 1.10,2013-02-18 15:26:00,
2013-02-18 09:42:00,34.5,29.0,29.57,NW,323,1.0,7.0,80,0.00,,,0.00,weatherlink.com 1.10,2013-02-18 15:42:00,
2013-02-18 09:57:00,34.8,29.0,29.57,West,277,3.0,10.0,80,0.00,,,0.00,weatherlink.com 1.10,2013-02-18 15:57:00,
2013-02-18 10:12:00,34.9,29.0,29.56,NNW,331,6.0,8.0,80,0.00,,,0.00,weatherlink.com 1.10,2013-02-18 16:12:00,
2013-02-18 10:27:00,34.6,29.0,29.57,West,260,3.0,11.0,81,0.00,,,0.00,weatherlink.com 1.10,2013-02-18 16:27:00,
2013-02-18 10:42:00,34.3,29.0,29.57,NW,318,3.0,12.0,81,0.00,,,0.00,weatherlink.com 1.10,2013-02-18 16:42:00,
2013-02-18 10:57:00,34.1,29.0,29.57,NW,323,5.0,11.0,82,0.00,,,0.00,weatherlink.com 1.10,2013-02-18 16:57:00,
2013-02-18 11:12:00,34.2,29.0,29.57,NW,307,4.0,11.0,82,0.00,,,0.00,weatherlink.com 1.10,2013-02-18 17:12:00,
2013-02-18 11:27:00,34.3,30.0,29.57,NNW,340,12.0,19.0,83,0.00,,,0.00,weatherlink.com 1.10,2013-02-18 17:27:00,
2013-02-18 11:42:00,32.6,27.0,29.58,NW,317,16.0,16.0,81,0.00,,,0.00,weatherlink.com 1.10,2013-02-18 17:42:00,
2013-02-18 11:57:00,30.2,26.0,29.58,NNW,340,15.0,19.0,84,0.00,,,0.00,weatherlink.com 1.10,2013-02-18 17:57:00,
2013-02-18 12:12:00,29.1,25.0,29.59,WNW,294,13.0,21.0,83,0.00,,,0.00,weatherlink.com 1.10,2013-02-18 18:12:00,
2013-02-18 12:27:00,28.6,24.0,29.59,NW,324,8.0,22.0,81,0.00,,,0.00,weatherlink.com 1.10,2013-02-18 18:27:00,
2013-02-18 12:42:00,27.9,23.0,29.60,NW,304,7.0,15.0,80,0.00,,,0.00,weatherlink.com 1.10,2013-02-18 18:42:00,
2013-02-18 12:57:00,27.2,22.0,29.61,North,355,9.0,20.0,79,0.00,,,0.00,weatherlink.com 1.10,2013-02-18 18:57:00,
2013-02-18 13:12:00,26.7,21.0,29.61,NNW,340,5.0,23.0,79,0.00,,,0.00,weatherlink.com 1.10,2013-02-18 19:12:00,
2013-02-18 13:27:00,26.4,20.0,29.62,WNW,292,7.0,19.0,78,0.00,,,0.00,weatherlink.com 1.10,2013-02-18 19:27:00,
2013-02-18 13:42:00,25.4,20.0,29.62,NW,313,14.0,20.0,80,0.00,,,0.00,weatherlink.com 1.10,2013-02-18 19:42:00,
2013-02-18 13:57:00,25.2,20.0,29.64,NNE,21,5.0,20.0,81,0.00,,,0.00,weatherlink.com 1.10,2013-02-18 19:57:00,
2013-02-18 14:27:00,24.3,19.0,29.65,WNW,301,5.0,15.0,79,0.00,,,0.00,weatherlink.com 1.10,2013-02-18 20:27:00,
2013-02-18 14:42:00,23.6,18.0,29.65,West,274,6.0,18.0,78,0.00,,,0.00,weatherlink.com 1.10,2013-02-18 20:42:00,
2013-02-18 14:57:00,23.1,17.0,29.66,NW,317,7.0,19.0,77,0.00,,,0.00,weatherlink.com 1.10,2013-02-18 20:57:00,
2013-02-18 15:12:00,22.3,16.0,29.66,NW,315,4.0,26.0,75,0.00,,,0.00,weatherlink.com 1.10,2013-02-18 21:12:00,
2013-02-18 15:27:00,22.2,15.0,29.66,WNW,288,22.0,23.0,75,0.00,,,0.00,weatherlink.com 1.10,2013-02-18 21:27:00,
2013-02-18 15:42:00,21.6,15.0,29.67,NW,306,8.0,19.0,74,0.00,,,0.00,weatherlink.com 1.10,2013-02-18 21:42:00,
2013-02-18 15:58:00,21.2,14.0,29.68,WNW,302,13.0,19.0,73,0.00,,,0.00,weatherlink.com 1.10,2013-02-18 21:58:00,
2013-02-18 16:12:00,20.4,13.0,29.67,NNW,343,12.0,24.0,72,0.00,,,0.00,weatherlink.com 1.10,2013-02-18 22:12:00,
2013-02-18 16:27:00,19.7,12.0,29.68,NNW,333,5.0,21.0,73,0.00,,,0.00,weatherlink.com 1.10,2013-02-18 22:27:00,
2013-02-18 16:42:00,19.2,12.0,29.68,WNW,292,11.0,25.0,72,0.00,,,0.00,weatherlink.com 1.10,2013-02-18 22:42:00,
2013-02-18 16:57:00,18.7,11.0,29.68,WNW,300,19.0,26.0,72,0.00,,,0.00,weatherlink.com 1.10,2013-02-18 22:57:00,
2013-02-18 17:14:00,18.1,11.0,29.69,WNW,303,7.0,23.0,72,0.00,,,0.00,weatherlink.com 1.10,2013-02-18 23:14:00,
2013-02-18 17:28:00,17.3,10.0,29.70,WNW,288,7.0,25.0,72,0.00,,,0.00,weatherlink.com 1.10,2013-02-18 23:28:00,
2013-02-18 17:43:00,16.5,9.0,29.71,NW,319,12.0,30.0,73,0.00,,,0.00,weatherlink.com 1.10,2013-02-18 23:43:00,
2013-02-18 17:58:00,15.1,8.0,29.72,NW,306,7.0,27.0,73,0.00,,,0.00,weatherlink.com 1.10,2013-02-18 23:58:00,
2013-02-18 18:13:00,14.4,8.0,29.73,NW,311,13.0,22.0,74,0.00,,,0.00,weatherlink.com 1.10,2013-02-19 00:13:00,
2013-02-18 18:28:00,13.9,7.0,29.74,NW,309,17.0,26.0,73,0.00,,,0.00,weatherlink.com 1.10,2013-02-19 00:28:00,
2013-02-18 18:43:00,13.0,6.0,29.75,NW,311,12.0,20.0,74,0.00,,,0.00,weatherlink.com 1.10,2013-02-19 00:43:00,
2013-02-18 18:58:00,12.6,5.0,29.76,NW,307,9.0,23.0,72,0.00,,,0.00,weatherlink.com 1.10,2013-02-19 00:58:00,
2013-02-18 19:13:00,12.3,5.0,29.76,NW,324,3.0,22.0,73,0.00,,,0.00,weatherlink.com 1.10,2013-02-19 01:13:00,
2013-02-18 19:28:00,12.1,5.0,29.76,North,355,18.0,18.0,72,0.00,,,0.00,weatherlink.com 1.10,2013-02-19 01:28:00,
2013-02-18 19:43:00,12.0,5.0,29.77,NW,323,6.0,23.0,72,0.00,,,0.00,weatherlink.com 1.10,2013-02-19 01:43:00,
2013-02-18 19:58:00,11.5,4.0,29.77,NNW,336,8.0,24.0,73,0.00,,,0.00,weatherlink.com 1.10,2013-02-19 01:58:00,
2013-02-18 20:13:00,11.1,4.0,29.78,NNW,342,5.0,25.0,73,0.00,,,0.00,weatherlink.com 1.10,2013-02-19 02:13:00,
2013-02-18 20:29:00,10.8,4.0,29.78,NW,305,9.0,20.0,73,0.00,,,0.00,weatherlink.com 1.10,2013-02-19 02:29:00,
2013-02-18 20:59:00,9.4,2.0,29.79,North,355,17.0,24.0,72,0.00,,,0.00,weatherlink.com 1.10,2013-02-19 02:59:00,
2013-02-18 21:14:00,9.0,1.0,29.78,NW,316,7.0,27.0,71,0.00,,,0.00,weatherlink.com 1.10,2013-02-19 03:14:00,
2013-02-18 21:29:00,8.6,2.0,29.79,NW,311,4.0,19.0,73,0.00,,,0.00,weatherlink.com 1.10,2013-02-19 03:29:00,
2013-02-18 21:44:00,7.9,1.0,29.79,NNW,329,6.0,21.0,72,0.00,,,0.00,weatherlink.com 1.10,2013-02-19 03:44:00,
2013-02-18 21:59:00,7.2,0.0,29.79,NW,319,3.0,25.0,73,0.00,,,0.00,weatherlink.com 1.10,2013-02-19 03:59:00,
2013-02-18 22:14:00,6.5,0.0,29.80,West,277,15.0,33.0,73,0.00,,,0.00,weatherlink.com 1.10,2013-02-19 04:14:00,
2013-02-18 22:44:00,5.7,-1.0,29.81,WNW,299,14.0,25.0,74,0.00,,,0.00,weatherlink.com 1.10,2013-02-19 04:44:00,
2013-02-18 22:59:00,5.8,0.0,29.81,NW,319,11.0,28.0,76,0.00,,,0.00,weatherlink.com 1.10,2013-02-19 04:59:00,
2013-02-18 23:14:00,5.4,-1.0,29.82,NNW,336,10.0,26.0,75,0.00,,,0.00,weatherlink.com 1.10,2013-02-19 05:14:00,
2013-02-18 23:30:00,5.1,-1.0,29.83,NNW,338,13.0,28.0,76,0.00,,,0.00,weatherlink.com 1.10,2013-02-19 05:30:00,
2013-02-18 23:44:00,5.1,-1.0,29.84,NW,314,4.0,23.0,75,0.00,,,0.00,weatherlink.com 1.10,2013-02-19 05:44:00,